Simultaneous Nadir Overpasses (SNOs) Predictions

Prediction of SNOs near US between AQUA and NPP Satellite Orbit:

Table of predicted SNOs near US for the next 10.0 days since TLE Epoch: 5/1/2021
Index Date (AQUA) Time (AQUA) AQUA Lat,Lon Date (NPP) Time (NPP) NPP Lat,Lon Distance(km) Time Diff (sec)
1 05/06/2021 07:18:35 49.93, -75.97 05/06/2021 07:19:28 50.34, -78.08 157.21 53
2 05/06/2021 08:57:28 49.94,-100.69 05/06/2021 09:00:56 50.46,-103.40 201.71 208
3 05/08/2021 18:16:44 49.97, -80.16 05/08/2021 18:09:47 49.69, -81.65 112.01 417
4 05/08/2021 19:55:37 49.97,-104.88 05/08/2021 19:51:15 49.57,-106.98 157.28 262
5 05/08/2021 21:30:48 36.73,-124.98 05/08/2021 21:28:55 36.25,-127.50 230.68 113
